CASSIOPE

Last updated on Thu Oct 23 2025 00:03:43 GMT+0000 (Coordinated Universal Time)

1 39265U 13055A 25295.24185689 .00044430 -51831-6 62882-3 0 9994 2 39265 80.9423 351.8171 0359073 134.5818 228.5322 15.06640226631608
UTC large
Height (km)
Speed (km/s)
/
Latitude / Longitude
Inclination (degrees)
Orbital Period (minutes)
Azimuth
Elevation
Range (km)
Doppler Factor

Next 0 passes for location: London (51.5072 / 0.1276)

Sorry there are no passes over London.